TRA75U LEIB-EHAM

Flight info

Callsign TRA75U
Flight time 2h 1m
Altitude 38000
Route EPAMA N856 EBROX Z26 LATRO DCT OLOXO DCT OKABI DCT TOU DCT ADABI DCT BOKNO UN858 VANAD UN874 BAMES UT191 PODEM DCT BAZOS DCT LUMIL DCT BELOB UY873 DENUT
Aircraft B738/M-SDE2E3FGHIJ1RWXYZ/LB1

Departure

Time 2026-05-04 15:23
Airport Ibiza Airport (LEIB)

Arrival

Time 2026-05-04 17:24
Airport Amsterdam Airport Schiphol (EHAM)
Time Latitude Longitude Altitude Speed Heading
2026-05-04 14:35 38.87494 1.37093 7 ft 0 kts 332°
2026-05-04 15:16 38.87497 1.37091 7 ft 2 kts 332°
2026-05-04 15:17 38.87518 1.37076 7 ft 4 kts 331°
2026-05-04 15:17 38.87566 1.37111 7 ft 8 kts 62°
2026-05-04 15:17 38.87603 1.37200 7 ft 14 kts 62°
2026-05-04 15:18 38.87649 1.37312 7 ft 14 kts 62°
2026-05-04 15:18 38.87690 1.37410 9 ft 10 kts 63°
2026-05-04 15:18 38.87680 1.37489 9 ft 10 kts 136°
2026-05-04 15:19 38.87586 1.37589 8 ft 9 kts 85°
2026-05-04 15:19 38.87615 1.37663 8 ft 10 kts 61°
2026-05-04 15:19 38.87728 1.37930 8 ft 22 kts 62°
2026-05-04 15:20 38.87797 1.38098 9 ft 21 kts 62°
2026-05-04 15:20 38.87865 1.38261 10 ft 20 kts 62°
2026-05-04 15:20 38.87930 1.38419 8 ft 20 kts 62°
2026-05-04 15:20 38.87991 1.38565 8 ft 15 kts 62°
2026-05-04 15:21 38.87984 1.38644 8 ft 10 kts 147°
2026-05-04 15:21 38.87924 1.38683 10 ft 9 kts 154°
2026-05-04 15:21 38.87858 1.38697 12 ft 4 kts 228°
2026-05-04 15:22 38.87842 1.38660 10 ft 8 kts 242°
2026-05-04 15:22 38.87751 1.38440 12 ft 60 kts 242°
2026-05-04 15:22 38.86985 1.36578 166 ft 156 kts 241°
2026-05-04 15:23 38.86493 1.35336 893 ft 155 kts 242°
2026-05-04 15:23 38.86006 1.34107 1699 ft 157 kts 241°
2026-05-04 15:23 38.85472 1.32780 2185 ft 177 kts 241°
2026-05-04 15:23 38.84892 1.31316 2649 ft 190 kts 243°
2026-05-04 15:24 38.83665 1.28186 3910 ft 197 kts 243°
2026-05-04 15:24 38.83661 1.24696 5241 ft 220 kts 293°
2026-05-04 15:25 38.84730 1.23162 5740 ft 242 kts 318°
2026-05-04 15:25 38.86104 1.21888 6454 ft 249 kts 320°
2026-05-04 15:25 38.87524 1.20590 7232 ft 252 kts 319°
2026-05-04 15:26 38.90404 1.17936 8742 ft 258 kts 319°
2026-05-04 15:26 38.91883 1.16600 9466 ft 264 kts 325°
2026-05-04 15:26 38.95761 1.16362 10287 ft 314 kts
2026-05-04 15:27 38.97934 1.17068 10470 ft 337 kts 11°
2026-05-04 15:27 39.02626 1.18704 11531 ft 355 kts 11°
2026-05-04 15:28 39.07455 1.20365 13038 ft 361 kts 11°
2026-05-04 15:28 39.09875 1.21181 13760 ft 366 kts 10°
2026-05-04 15:28 39.14874 1.22847 15108 ft 375 kts 10°
2026-05-04 15:29 39.17421 1.23693 15795 ft 379 kts
2026-05-04 15:30 39.27857 1.27156 18444 ft 397 kts
2026-05-04 15:30 39.36044 1.29880 20113 ft 411 kts
2026-05-04 15:31 39.41638 1.31747 21241 ft 419 kts
2026-05-04 15:31 39.44487 1.32698 21746 ft 424 kts
2026-05-04 15:32 39.53175 1.35607 23298 ft 438 kts
2026-05-04 15:32 39.59134 1.37592 24203 ft 444 kts
2026-05-04 15:33 39.65174 1.37539 25084 ft 432 kts 346°
2026-05-04 15:34 39.74210 1.36189 26320 ft 442 kts 346°
2026-05-04 15:34 39.77292 1.35760 26735 ft 445 kts 347°
2026-05-04 15:34 39.83462 1.34932 27545 ft 451 kts 347°
2026-05-04 15:35 39.88703 1.34239 28168 ft 456 kts 347°
2026-05-04 15:35 39.92910 1.33684 28665 ft 460 kts 347°
2026-05-04 15:35 39.96102 1.33261 29033 ft 462 kts 347°
2026-05-04 15:36 40.02554 1.32404 29744 ft 468 kts 347°
2026-05-04 15:36 40.04717 1.32116 29953 ft 470 kts 347°
2026-05-04 15:36 40.07979 1.31681 30238 ft 473 kts 347°
2026-05-04 15:37 40.11275 1.31242 30525 ft 475 kts 347°
2026-05-04 15:37 40.14537 1.30807 30819 ft 476 kts 347°
2026-05-04 15:37 40.17845 1.30365 31099 ft 478 kts 347°
2026-05-04 15:37 40.21169 1.29921 31366 ft 480 kts 347°
2026-05-04 15:38 40.24505 1.29474 31625 ft 482 kts 347°
2026-05-04 15:38 40.27861 1.29025 31943 ft 483 kts 347°
2026-05-04 15:38 40.31168 1.28582 32313 ft 482 kts 347°
2026-05-04 15:38 40.34505 1.28136 32711 ft 480 kts 347°
2026-05-04 15:39 40.37830 1.27689 33075 ft 479 kts 347°
2026-05-04 15:39 40.41155 1.27240 33396 ft 479 kts 347°
2026-05-04 15:39 40.47753 1.26346 34053 ft 478 kts 347°
2026-05-04 15:40 40.51065 1.25897 34319 ft 478 kts 347°
2026-05-04 15:40 40.54376 1.25448 34596 ft 477 kts 347°
2026-05-04 15:40 40.57658 1.25003 34891 ft 476 kts 347°
2026-05-04 15:40 40.60955 1.24555 35182 ft 475 kts 347°
2026-05-04 15:41 40.64246 1.24108 35452 ft 474 kts 347°
2026-05-04 15:41 40.67532 1.23665 35704 ft 475 kts 348°
2026-05-04 15:41 40.70862 1.23593 35950 ft 483 kts 358°
2026-05-04 15:41 40.74217 1.24193 36211 ft 490 kts
2026-05-04 15:42 40.77536 1.25324 36476 ft 491 kts 10°
2026-05-04 15:42 40.80785 1.26534 36711 ft 491 kts 11°
2026-05-04 15:42 40.84080 1.27788 36941 ft 491 kts 11°
2026-05-04 15:42 40.87365 1.29031 37195 ft 490 kts 10°
2026-05-04 15:43 40.90647 1.30252 37498 ft 489 kts 10°
2026-05-04 15:43 40.93924 1.31452 37742 ft 488 kts 10°
2026-05-04 15:43 40.97200 1.32638 37917 ft 488 kts 10°
2026-05-04 15:44 41.03779 1.35003 37933 ft 491 kts 10°
2026-05-04 15:44 41.10325 1.37364 37922 ft 487 kts 10°
2026-05-04 15:45 41.16870 1.39732 37939 ft 484 kts 10°
2026-05-04 15:45 41.23324 1.42072 37926 ft 482 kts 10°
2026-05-04 15:46 41.29810 1.44428 37918 ft 481 kts 10°
2026-05-04 15:46 41.36261 1.46776 37936 ft 483 kts 10°
2026-05-04 15:47 41.42757 1.49145 37915 ft 485 kts 11°
2026-05-04 15:47 41.49252 1.51521 37911 ft 487 kts 11°
2026-05-04 15:48 41.55798 1.53920 37911 ft 488 kts 10°
2026-05-04 15:48 41.65637 1.57535 37913 ft 491 kts 11°
2026-05-04 15:49 41.72235 1.59966 37905 ft 492 kts 11°
2026-05-04 15:49 41.78922 1.61446 37930 ft 480 kts 355°
2026-05-04 15:50 41.85496 1.60672 37919 ft 472 kts 346°
2026-05-04 15:50 41.91981 1.59540 37919 ft 471 kts 346°
2026-05-04 15:51 41.98504 1.58453 37925 ft 471 kts 347°
2026-05-04 15:51 42.04966 1.57425 37927 ft 470 kts 347°
2026-05-04 15:52 42.11472 1.56400 37906 ft 469 kts 347°
2026-05-04 15:52 42.17967 1.55372 37909 ft 468 kts 347°
2026-05-04 15:53 42.24395 1.54351 37908 ft 467 kts 347°
2026-05-04 15:53 42.30850 1.53322 37928 ft 467 kts 347°
2026-05-04 15:54 42.37311 1.52290 37953 ft 468 kts 347°
2026-05-04 15:54 42.43755 1.51259 37936 ft 469 kts 347°
2026-05-04 15:55 42.50264 1.50218 37935 ft 470 kts 347°
2026-05-04 15:55 42.56785 1.49175 37913 ft 471 kts 348°
2026-05-04 15:56 42.63308 1.48124 37914 ft 473 kts 348°
2026-05-04 15:56 42.69815 1.47077 37913 ft 474 kts 348°
2026-05-04 15:57 42.76394 1.46018 37903 ft 476 kts 348°
2026-05-04 15:57 42.82967 1.44959 37918 ft 475 kts 348°
2026-05-04 15:58 42.89468 1.43916 37929 ft 471 kts 348°
2026-05-04 15:58 42.95998 1.42850 37912 ft 472 kts 348°
2026-05-04 15:59 43.02539 1.41784 37938 ft 473 kts 348°
2026-05-04 15:59 43.09058 1.40721 37926 ft 475 kts 348°
2026-05-04 16:00 43.15639 1.39648 37917 ft 476 kts 348°
2026-05-04 16:00 43.22230 1.38570 37943 ft 476 kts 348°
2026-05-04 16:01 43.28782 1.37496 37924 ft 477 kts 348°
2026-05-04 16:01 43.35388 1.36410 37924 ft 477 kts 348°
2026-05-04 16:02 43.41955 1.35329 37926 ft 477 kts 348°
2026-05-04 16:03 43.51877 1.33691 37922 ft 477 kts 348°
2026-05-04 16:03 43.58443 1.32603 37921 ft 478 kts 348°
2026-05-04 16:04 43.65062 1.31506 37947 ft 478 kts 348°
2026-05-04 16:04 43.74864 1.29426 37940 ft 474 kts 344°
2026-05-04 16:05 43.81347 1.27672 37924 ft 474 kts 343°
2026-05-04 16:06 43.91035 1.25086 37921 ft 473 kts 344°
2026-05-04 16:07 44.03995 1.21716 37942 ft 472 kts 344°
2026-05-04 16:08 44.16868 1.18363 37929 ft 471 kts 344°
2026-05-04 16:09 44.32955 1.14146 37941 ft 471 kts 345°
2026-05-04 16:10 44.45924 1.10727 37929 ft 476 kts 345°
2026-05-04 16:11 44.58906 1.07295 37925 ft 474 kts 345°
2026-05-04 16:12 44.78318 1.02129 37916 ft 472 kts 345°
2026-05-04 16:13 44.91192 0.98683 37911 ft 471 kts 345°
2026-05-04 16:14 45.04044 0.95227 37916 ft 471 kts 345°
2026-05-04 16:16 45.20164 0.90871 37925 ft 472 kts 346°
2026-05-04 16:17 45.36315 0.86481 37913 ft 473 kts 346°
2026-05-04 16:18 45.49276 0.82939 37911 ft 474 kts 346°
2026-05-04 16:19 45.65444 0.78499 37922 ft 473 kts 346°
2026-05-04 16:20 45.81621 0.74029 37943 ft 474 kts 346°
2026-05-04 16:22 45.97803 0.69534 37924 ft 466 kts 346°
2026-05-04 16:23 46.15858 0.64480 37925 ft 466 kts 346°
2026-05-04 16:25 46.35032 0.59079 37928 ft 472 kts 346°
2026-05-04 16:26 46.57910 0.53798 37923 ft 480 kts
2026-05-04 16:28 46.74039 0.58988 37920 ft 475 kts 12°
2026-05-04 16:29 46.96530 0.66470 37926 ft 473 kts 11°
2026-05-04 16:31 47.12758 0.70239 37927 ft 474 kts
2026-05-04 16:32 47.32586 0.72102 37936 ft 477 kts
2026-05-04 16:33 47.45778 0.73497 37940 ft 475 kts
2026-05-04 16:34 47.52275 0.74990 37933 ft 475 kts 17°
2026-05-04 16:34 47.55422 0.76523 37945 ft 475 kts 18°
2026-05-04 16:35 47.74105 0.85954 37913 ft 471 kts 17°
2026-05-04 16:36 47.83449 0.90572 37928 ft 471 kts 18°
2026-05-04 16:37 47.92738 0.95251 37924 ft 470 kts 18°
2026-05-04 16:38 48.05153 1.01558 37932 ft 472 kts 18°
2026-05-04 16:39 48.20694 1.09485 37919 ft 472 kts 18°
2026-05-04 16:40 48.33149 1.15835 37927 ft 473 kts 18°
2026-05-04 16:41 48.48660 1.23783 37932 ft 472 kts 18°
2026-05-04 16:43 48.64208 1.31699 37914 ft 470 kts 18°
2026-05-04 16:43 48.73505 1.36383 37937 ft 470 kts 18°
2026-05-04 16:45 48.92076 1.45826 37949 ft 469 kts 18°
2026-05-04 16:46 49.01497 1.49767 37973 ft 467 kts
2026-05-04 16:46 49.07936 1.51113 37946 ft 467 kts
2026-05-04 16:47 49.20759 1.54039 37935 ft 467 kts
2026-05-04 16:48 49.29531 1.60042 37929 ft 467 kts 41°
2026-05-04 16:48 49.31905 1.63434 37957 ft 466 kts 45°
2026-05-04 16:49 49.41176 1.77316 37929 ft 466 kts 44°
2026-05-04 16:50 49.50547 1.91087 37945 ft 466 kts 44°
2026-05-04 16:51 49.58171 2.00306 37952 ft 466 kts 36°
2026-05-04 16:52 49.68691 2.11948 37936 ft 466 kts 36°
2026-05-04 16:53 49.76538 2.20869 37926 ft 465 kts 37°
2026-05-04 16:54 49.86904 2.32740 37927 ft 463 kts 37°
2026-05-04 16:55 50.02419 2.50616 37937 ft 462 kts 37°
2026-05-04 16:56 50.15315 2.65587 37933 ft 463 kts 37°
2026-05-04 16:57 50.23029 2.74591 37930 ft 463 kts 37°
2026-05-04 16:58 50.33333 2.86679 37936 ft 464 kts 37°
2026-05-04 17:00 50.49592 3.02766 36050 ft 464 kts 25°
2026-05-04 17:00 50.58437 3.09316 33977 ft 474 kts 26°
2026-05-04 17:01 50.64408 3.13825 32583 ft 474 kts 26°
2026-05-04 17:01 50.70344 3.18343 31313 ft 472 kts 27°
2026-05-04 17:02 50.76201 3.22816 29966 ft 470 kts 27°
2026-05-04 17:02 50.82093 3.27328 28273 ft 470 kts 27°
2026-05-04 17:03 50.85042 3.29590 27332 ft 472 kts 26°
2026-05-04 17:03 50.87987 3.31852 26849 ft 464 kts 26°
2026-05-04 17:03 50.93600 3.36168 26669 ft 432 kts 26°
2026-05-04 17:04 50.98805 3.40183 26376 ft 408 kts 26°
2026-05-04 17:04 51.03889 3.44116 25492 ft 403 kts 26°
2026-05-04 17:05 51.08846 3.47960 24189 ft 395 kts 26°
2026-05-04 17:05 51.13765 3.51783 22791 ft 388 kts 26°
2026-05-04 17:06 51.18578 3.55533 21515 ft 386 kts 26°
2026-05-04 17:06 51.21003 3.57425 20984 ft 386 kts 26°
2026-05-04 17:07 51.25783 3.61163 20201 ft 378 kts 26°
2026-05-04 17:07 51.26550 3.61763 20079 ft 377 kts 26°
2026-05-04 17:07 51.30443 3.64814 19337 ft 374 kts 26°
2026-05-04 17:07 51.32777 3.66645 18884 ft 373 kts 26°
2026-05-04 17:08 51.35106 3.68475 18541 ft 369 kts 26°
2026-05-04 17:08 51.39654 3.72054 17682 ft 357 kts 26°
2026-05-04 17:08 51.41873 3.73804 16905 ft 356 kts 26°
2026-05-04 17:09 51.44118 3.75577 16269 ft 360 kts 26°
2026-05-04 17:09 51.46327 3.77322 15948 ft 355 kts 26°
2026-05-04 17:09 51.48523 3.79060 15608 ft 351 kts 26°
2026-05-04 17:10 51.52157 3.81938 14924 ft 349 kts 26°
2026-05-04 17:10 51.59345 3.87648 13632 ft 343 kts 26°
2026-05-04 17:11 51.60793 3.88800 13350 ft 342 kts 26°
2026-05-04 17:11 51.62891 3.90471 12965 ft 339 kts 26°
2026-05-04 17:11 51.67102 3.93831 12203 ft 335 kts 26°
2026-05-04 17:12 51.69198 3.95506 11807 ft 333 kts 26°
2026-05-04 17:12 51.73317 3.98803 11081 ft 329 kts 26°
2026-05-04 17:13 51.79438 4.03714 9988 ft 326 kts 26°
2026-05-04 17:14 51.85250 4.08393 9755 ft 295 kts 26°
2026-05-04 17:14 51.87039 4.09834 9496 ft 288 kts 26°
2026-05-04 17:14 51.90612 4.12719 8715 ft 285 kts 26°
2026-05-04 17:15 51.92308 4.14351 8322 ft 284 kts 36°
2026-05-04 17:15 51.95342 4.18377 7607 ft 280 kts 40°
2026-05-04 17:16 51.98329 4.22458 7088 ft 279 kts 39°
2026-05-04 17:16 52.02765 4.28413 6449 ft 276 kts 39°
2026-05-04 17:17 52.04255 4.30399 6070 ft 276 kts 38°
2026-05-04 17:17 52.08657 4.36262 5206 ft 270 kts 38°
2026-05-04 17:18 52.10088 4.38167 4920 ft 268 kts 39°
2026-05-04 17:18 52.12952 4.41986 4329 ft 264 kts 38°
2026-05-04 17:19 52.15751 4.45723 3455 ft 259 kts 38°
2026-05-04 17:19 52.18475 4.49368 2968 ft 246 kts 39°
2026-05-04 17:20 52.20932 4.52953 2817 ft 228 kts 50°
2026-05-04 17:20 52.22576 4.57131 2371 ft 212 kts 57°
2026-05-04 17:20 52.23335 4.59144 2079 ft 202 kts 56°
2026-05-04 17:21 52.24726 4.62787 1553 ft 177 kts 56°
2026-05-04 17:21 52.25918 4.65908 1145 ft 146 kts 54°
2026-05-04 17:22 52.26427 4.67237 921 ft 134 kts 54°
2026-05-04 17:22 52.26915 4.68508 786 ft 132 kts 55°
2026-05-04 17:23 52.28431 4.72483 241 ft 142 kts 54°
2026-05-04 17:23 52.28963 4.73855 27 ft 140 kts 54°
2026-05-04 17:23 52.29765 4.75945 -4 ft 68 kts 58°
2026-05-04 17:24 52.29932 4.76380 -5 ft 25 kts 57°
2026-05-04 17:24 52.30265 4.76743 -2 ft 10 kts 29°
2026-05-04 17:25 52.30316 4.76816 -2 ft 10 kts 56°
2026-05-04 17:25 52.30380 4.76999 -2 ft 6 kts 58°
2026-05-04 17:26 52.30445 4.77032 -2 ft 6 kts 328°
2026-05-04 17:26 52.30577 4.76894 -2 ft 8 kts 320°
2026-05-04 17:27 52.30629 4.76786 -2 ft 2 kts 314°
2026-05-04 17:27 52.30615 4.76742 -2 ft 4 kts 216°
2026-05-04 17:28 52.30579 4.76701 -2 ft 1 kts 215°
2026-05-04 17:29 52.30575 4.76696 -2 ft 0 kts 215°